Location: Newark
(34.6283°N, 36.0776°E)
Time: 23:25:14
(UTC+00:00)

S-56A Canister/Altair - Pass Details

Date: 17 October 2019
Orbit: 634 x 2498 km, 38.9° (Epoch: 13 November)

Event Time Altitude Azimuth Distance (km) Brightness Sun altitude
Exits shadow 03:47:52 - 280° (W) 4,210 10.6 0.2°
Rises 03:47:54 0° 280° (W) 4,196 10.6 0.3°
Reaches altitude 10° 03:50:23 10° 283° (WNW) 3,440 10.2 0.8°
Maximum altitude 03:59:31 72° 7° (N) 1,898 9.6 2.6°
Drops below altitude 10° 04:13:05 10° 92° (E) 4,923 13.7 5.3°
Sets 04:17:21 0° 94° (E) 6,068 14.2 6.1°
